| time (UTC) | temp F | wind direction | speed knots | gust knots | rain 1hr in | rain 24hr in | rain mn in | humidity % | barometer mb |
| 20260507001122 | 54 | 347 | 1.7 | 1.7 | 0.00 | 0.00 | 0.66 | 99 | 1007.3 |
| 20260507000622 | 54 | 338 | 0.9 | 0.9 | 0.00 | 0.00 | 0.66 | 99 | 1007.3 |
| 20260507000123 | 54 | 330 | 1.7 | 2.6 | 0.00 | 0.00 | 0.66 | 99 | 1007.3 |
| 20260506235121 | 54 | 313 | 2.6 | 2.6 | 0.00 | 0.00 | 0.66 | 99 | 1007.0 |
| 20260506234622 | 56 | 347 | 3.5 | 6.1 | 0.00 | 0.00 | 0.66 | 99 | 1007.0 |
| 20260506234121 | 56 | 327 | 0.9 | 2.6 | 0.00 | 0.00 | 0.66 | 99 | 1007.0 |
| 20260506233620 | 56 | 347 | 1.7 | 2.6 | 0.00 | 0.00 | 0.65 | 99 | 1007.0 |
| 20260506233120 | 56 | 329 | 0.9 | 0.9 | 0.00 | 0.00 | 0.62 | 99 | 1006.6 |
| 20260506232621 | 56 | 334 | 0.0 | 0.9 | 0.00 | 0.00 | 0.62 | 99 | 1006.6 |
| 20260506232120 | 56 | 315 | 0.0 | 0.9 | 0.00 | 0.00 | 0.61 | 99 | 1006.6 |
| 20260506231619 | 56 | 348 | 0.9 | 0.9 | 0.00 | 0.00 | 0.60 | 99 | 1006.3 |
| 20260506231118 | 56 | 0.0 | 0.0 | 0.00 | 0.00 | 0.58 | 99 | 1006.3 | |
| 20260506230618 | 56 | 281 | 2.6 | 2.6 | 0.00 | 0.00 | 0.58 | 99 | 1006.6 |
| 20260506230119 | 56 | 112 | 4.3 | 5.2 | 0.00 | 0.00 | 0.55 | 99 | 1006.3 |
| 20260506225618 | 56 | 211 | 3.5 | 5.2 | 0.00 | 0.00 | 0.51 | 99 | 1006.3 |
| 20260506225118 | 56 | 218 | 2.6 | 4.3 | 0.00 | 0.00 | 0.50 | 99 | 1006.3 |
| 20260506224616 | 56 | 99 | 2.6 | 5.2 | 0.00 | 0.00 | 0.49 | 99 | 1006.3 |
| 20260506224119 | 56 | 323 | 1.7 | 1.7 | 0.00 | 0.00 | 0.48 | 99 | 1006.3 |
| 20260506223618 | 56 | 52 | 1.7 | 2.6 | 0.00 | 0.00 | 0.47 | 99 | 1006.3 |
| 20260506223146 | 56 | 171 | 3.5 | 5.2 | 0.00 | 0.00 | 0.47 | 99 | 1006.3 |
| 20260506222645 | 57 | 46 | 2.6 | 4.3 | 0.00 | 0.00 | 0.47 | 99 | 1006.3 |
| 20260506222147 | 56 | 101 | 2.6 | 4.3 | 0.00 | 0.00 | 0.47 | 99 | 1006.3 |
| 20260506221646 | 56 | 316 | 1.7 | 2.6 | 0.00 | 0.00 | 0.47 | 99 | 1006.3 |
| 20260506221145 | 56 | 181 | 2.6 | 4.3 | 0.00 | 0.00 | 0.47 | 99 | 1006.3 |
| 20260506220644 | 56 | 201 | 3.5 | 5.2 | 0.00 | 0.00 | 0.46 | 99 | 1006.5 |
| 20260506220143 | 56 | 4 | 2.6 | 4.3 | 0.00 | 0.00 | 0.46 | 99 | 1006.6 |
| 20260506215644 | 57 | 195 | 3.5 | 6.1 | 0.00 | 0.00 | 0.46 | 99 | 1006.6 |
| 20260506215143 | 57 | 175 | 7.0 | 8.7 | 0.00 | 0.00 | 0.46 | 99 | 1006.5 |
| 20260506214643 | 57 | 49 | 2.6 | 4.3 | 0.00 | 0.00 | 0.46 | 99 | 1006.3 |
| 20260506214142 | 57 | 166 | 5.2 | 6.1 | 0.00 | 0.00 | 0.46 | 99 | 1006.3 |
| 20260506213643 | 57 | 119 | 3.5 | 5.2 | 0.00 | 0.00 | 0.45 | 99 | 1006.3 |
| 20260506213142 | 57 | 7 | 1.7 | 2.6 | 0.00 | 0.00 | 0.45 | 99 | 1006.3 |
| 20260506212646 | 57 | 88 | 2.6 | 5.2 | 0.00 | 0.00 | 0.45 | 99 | 1006.3 |
| 20260506212141 | 57 | 140 | 2.6 | 2.6 | 0.00 | 0.00 | 0.45 | 99 | 1006.3 |
| 20260506211640 | 57 | 138 | 4.3 | 6.1 | 0.00 | 0.00 | 0.44 | 99 | 1006.5 |
| 20260506211141 | 57 | 173 | 5.2 | 8.7 | 0.00 | 0.00 | 0.44 | 99 | 1006.3 |
| 20260506210641 | 57 | 143 | 6.1 | 7.0 | 0.00 | 0.00 | 0.43 | 99 | 1006.3 |
| 20260506210139 | 57 | 155 | 5.2 | 7.8 | 0.00 | 0.00 | 0.43 | 99 | 1006.3 |
| 20260506205641 | 57 | 158 | 2.6 | 4.3 | 0.00 | 0.00 | 0.43 | 99 | 1006.3 |
| 20260506204639 | 57 | 170 | 6.1 | 7.0 | 0.00 | 0.00 | 0.43 | 99 | 1006.3 |
| 20260506204138 | 57 | 155 | 3.5 | 7.8 | 0.00 | 0.00 | 0.42 | 99 | 1006.3 |
| 20260506203639 | 57 | 106 | 5.2 | 8.7 | 0.00 | 0.00 | 0.42 | 99 | 1006.3 |
| 20260506202639 | 57 | 277 | 1.7 | 2.6 | 0.00 | 0.00 | 0.41 | 99 | 1006.3 |
| 20260506202137 | 57 | 178 | 6.1 | 9.6 | 0.00 | 0.00 | 0.41 | 99 | 1006.6 |
| 20260506201637 | 57 | 261 | 2.6 | 5.2 | 0.00 | 0.00 | 0.41 | 99 | 1006.6 |
| 20260506201138 | 58 | 80 | 4.3 | 5.2 | 0.00 | 0.00 | 0.41 | 99 | 1006.5 |
| 20260506200637 | 58 | 151 | 5.2 | 7.8 | 0.00 | 0.00 | 0.41 | 99 | 1006.6 |
| 20260506195737 | 58 | 188 | 6.1 | 8.7 | 0.00 | 0.00 | 0.40 | 99 | 1006.8 |
| 20260506195135 | 58 | 158 | 4.3 | 7.0 | 0.00 | 0.00 | 0.40 | 99 | 1006.6 |
| 20260506194635 | 58 | 159 | 5.2 | 7.8 | 0.00 | 0.00 | 0.40 | 99 | 1007.0 |
| 20260506194134 | 58 | 165 | 6.1 | 7.8 | 0.00 | 0.00 | 0.40 | 99 | 1006.8 |
| 20260506193637 | 58 | 142 | 5.2 | 7.0 | 0.00 | 0.00 | 0.39 | 99 | 1007.0 |
| 20260506193139 | 58 | 243 | 5.2 | 7.8 | 0.00 | 0.00 | 0.39 | 99 | 1007.0 |
| 20260506192634 | 58 | 121 | 4.3 | 7.0 | 0.00 | 0.00 | 0.39 | 99 | 1006.8 |
| 20260506192133 | 58 | 166 | 5.2 | 7.8 | 0.00 | 0.00 | 0.39 | 99 | 1007.0 |
| 20260506191632 | 58 | 119 | 6.1 | 7.8 | 0.00 | 0.00 | 0.38 | 99 | 1007.0 |
| 20260506191133 | 58 | 183 | 6.1 | 8.7 | 0.00 | 0.00 | 0.37 | 99 | 1007.0 |
| 20260506190632 | 58 | 169 | 7.0 | 9.6 | 0.00 | 0.00 | 0.37 | 99 | 1007.2 |
| 20260506190132 | 58 | 164 | 4.3 | 6.1 | 0.00 | 0.00 | 0.36 | 99 | 1007.0 |
| 20260506185630 | 58 | 90 | 3.5 | 6.1 | 0.00 | 0.00 | 0.35 | 99 | 1007.0 |
| 20260506185132 | 57 | 167 | 7.8 | 12.2 | 0.00 | 0.00 | 0.34 | 99 | 1007.3 |
| 20260506184632 | 57 | 170 | 3.5 | 4.3 | 0.00 | 0.00 | 0.33 | 99 | 1007.3 |
| 20260506184230 | 57 | 153 | 5.2 | 8.7 | 0.00 | 0.00 | 0.32 | 99 | 1007.3 |
| 20260506183629 | 57 | 93 | 2.6 | 4.3 | 0.00 | 0.00 | 0.30 | 99 | 1007.3 |
| 20260506183128 | 57 | 200 | 3.5 | 5.2 | 0.00 | 0.00 | 0.29 | 99 | 1007.7 |
| 20260506182630 | 57 | 162 | 5.2 | 7.8 | 0.00 | 0.00 | 0.27 | 99 | 1007.7 |
| 20260506182129 | 57 | 283 | 1.7 | 4.3 | 0.00 | 0.00 | 0.26 | 99 | 1007.7 |
| 20260506181628 | 57 | 35 | 1.7 | 1.7 | 0.00 | 0.00 | 0.25 | 99 | 1007.7 |
| 20260506181129 | 57 | 133 | 5.2 | 7.8 | 0.00 | 0.00 | 0.25 | 99 | 1008.0 |
| 20260506180628 | 57 | 352 | 1.7 | 1.7 | 0.00 | 0.00 | 0.24 | 99 | 1007.9 |
| 20260506180128 | 57 | 142 | 6.1 | 7.8 | 0.00 | 0.00 | 0.22 | 99 | 1008.4 |
| 20260506175629 | 57 | 158 | 5.2 | 7.0 | 0.00 | 0.00 | 0.21 | 99 | 1008.0 |
| 20260506175126 | 57 | 139 | 4.3 | 6.1 | 0.00 | 0.00 | 0.20 | 99 | 1008.2 |
| 20260506174727 | 57 | 111 | 6.1 | 7.8 | 0.00 | 0.00 | 0.18 | 99 | 1008.4 |
| 20260506174127 | 57 | 182 | 5.2 | 7.0 | 0.00 | 0.00 | 0.17 | 99 | 1008.7 |
| 20260506173625 | 57 | 175 | 3.5 | 6.1 | 0.00 | 0.00 | 0.16 | 99 | 1008.6 |
| 20260506173225 | 57 | 127 | 5.2 | 11.3 | 0.00 | 0.00 | 0.15 | 99 | 1008.7 |
| 20260506172624 | 57 | 113 | 5.2 | 7.8 | 0.00 | 0.00 | 0.14 | 99 | 1008.7 |
| 20260506172126 | 57 | 128 | 4.3 | 5.2 | 0.00 | 0.00 | 0.13 | 99 | 1008.7 |
| 20260506171626 | 57 | 180 | 2.6 | 4.3 | 0.00 | 0.00 | 0.12 | 99 | 1008.7 |
| 20260506171124 | 57 | 142 | 5.2 | 8.7 | 0.00 | 0.00 | 0.11 | 99 | 1009.1 |
| 20260506170623 | 57 | 144 | 3.5 | 4.3 | 0.00 | 0.00 | 0.09 | 99 | 1009.1 |
| 20260506170128 | 57 | 177 | 3.5 | 5.2 | 0.00 | 0.00 | 0.09 | 99 | 1009.1 |
| 20260506165626 | 57 | 153 | 2.6 | 4.3 | 0.00 | 0.00 | 0.08 | 99 | 1008.7 |
| 20260506165122 | 57 | 23 | 1.7 | 2.6 | 0.00 | 0.00 | 0.07 | 99 | 1008.9 |
| 20260506164622 | 57 | 213 | 3.5 | 4.3 | 0.00 | 0.00 | 0.06 | 99 | 1008.9 |
| 20260506164122 | 57 | 122 | 3.5 | 5.2 | 0.00 | 0.00 | 0.05 | 99 | 1008.7 |
| 20260506163622 | 57 | 210 | 4.3 | 6.1 | 0.00 | 0.00 | 0.04 | 99 | 1008.7 |
| 20260506163123 | 58 | 77 | 3.5 | 4.3 | 0.00 | 0.00 | 0.03 | 99 | 1009.1 |
| 20260506162724 | 58 | 81 | 4.3 | 7.0 | 0.00 | 0.00 | 0.03 | 99 | 1009.1 |
| 20260506162121 | 58 | 245 | 3.5 | 6.1 | 0.00 | 0.00 | 0.02 | 99 | 1009.1 |
| 20260506161621 | 58 | 201 | 4.3 | 9.6 | 0.00 | 0.00 | 0.01 | 99 | 1009.1 |
| 20260506161122 | 58 | 147 | 3.5 | 6.1 | 0.00 | 0.00 | 0.01 | 99 | 1009.1 |
| 20260506160620 | 58 | 102 | 4.3 | 6.1 | 0.00 | 0.00 | 0.01 | 99 | 1009.1 |
| 20260506160120 | 58 | 137 | 3.5 | 4.3 | 0.00 | 0.00 | 0.00 | 99 | 1009.3 |
| 20260506155619 | 58 | 158 | 6.1 | 7.8 | 0.00 | 0.00 | 0.00 | 98 | 1009.1 |
| 20260506155121 | 59 | 175 | 4.3 | 7.0 | 0.00 | 0.00 | 0.00 | 98 | 1009.1 |
| 20260506154619 | 59 | 144 | 7.8 | 8.7 | 0.00 | 0.00 | 0.00 | 97 | 1009.4 |
| 20260506154119 | 59 | 134 | 5.2 | 7.8 | 0.00 | 0.00 | 0.00 | 97 | 1009.4 |
| 20260506153618 | 58 | 34 | 2.6 | 2.6 | 0.00 | 0.00 | 0.00 | 97 | 1009.8 |
| 20260506153118 | 58 | 171 | 4.3 | 7.0 | 0.00 | 0.00 | 0.00 | 97 | 1009.4 |
| 20260506152620 | 58 | 157 | 7.8 | 12.2 | 0.00 | 0.00 | 0.00 | 96 | 1009.6 |
| 20260506152117 | 59 | 214 | 4.3 | 6.1 | 0.00 | 0.00 | 0.00 | 96 | 1009.8 |
| 20260506151617 | 58 | 107 | 2.6 | 4.3 | 0.00 | 0.00 | 0.00 | 96 | 1009.8 |
| 20260506151116 | 58 | 148 | 2.6 | 4.3 | 0.00 | 0.00 | 0.00 | 96 | 1009.8 |
| 20260506150619 | 58 | 92 | 3.5 | 6.1 | 0.00 | 0.00 | 0.00 | 95 | 1009.8 |
| 20260506150146 | 58 | 125 | 3.5 | 5.2 | 0.00 | 0.00 | 0.00 | 94 | 1010.1 |
| 20260506145647 | 58 | 170 | 4.3 | 6.1 | 0.00 | 0.00 | 0.00 | 93 | 1010.1 |
| 20260506144646 | 58 | 182 | 3.5 | 4.3 | 0.00 | 0.00 | 0.00 | 93 | 1010.1 |
| 20260506144145 | 58 | 124 | 2.6 | 4.3 | 0.00 | 0.00 | 0.00 | 93 | 1010.1 |
| 20260506143143 | 58 | 231 | 4.3 | 6.1 | 0.00 | 0.00 | 0.00 | 92 | 1010.1 |
| 20260506142645 | 58 | 119 | 3.5 | 4.3 | 0.00 | 0.00 | 0.00 | 92 | 1009.8 |
| 20260506142144 | 58 | 133 | 5.2 | 8.7 | 0.00 | 0.00 | 0.00 | 92 | 1009.8 |
| 20260506141643 | 58 | 58 | 2.6 | 4.3 | 0.00 | 0.00 | 0.00 | 92 | 1009.8 |
| 20260506141142 | 59 | 139 | 6.1 | 7.0 | 0.00 | 0.00 | 0.00 | 92 | 1009.8 |
| 20260506140742 | 59 | 144 | 5.2 | 6.1 | 0.00 | 0.00 | 0.00 | 93 | 1009.8 |
| 20260506140243 | 58 | 186 | 6.1 | 7.0 | 0.00 | 0.00 | 0.00 | 93 | 1009.8 |
| 20260506135641 | 58 | 132 | 5.2 | 7.0 | 0.00 | 0.00 | 0.00 | 93 | 1009.4 |
| 20260506135141 | 58 | 257 | 5.2 | 7.0 | 0.00 | 0.00 | 0.00 | 93 | 1009.4 |
| 20260506134640 | 58 | 127 | 5.2 | 8.7 | 0.00 | 0.00 | 0.00 | 94 | 1009.6 |
| 20260506134141 | 57 | 137 | 5.2 | 6.1 | 0.00 | 0.00 | 0.00 | 95 | 1009.8 |
| 20260506133640 | 57 | 129 | 2.6 | 2.6 | 0.00 | 0.00 | 0.00 | 96 | 1009.8 |
| 20260506133139 | 56 | 32 | 0.9 | 1.7 | 0.00 | 0.00 | 0.00 | 96 | 1009.8 |
| 20260506132638 | 56 | 178 | 4.3 | 7.0 | 0.00 | 0.00 | 0.00 | 96 | 1009.8 |
| 20260506132140 | 56 | 172 | 4.3 | 5.2 | 0.00 | 0.00 | 0.00 | 96 | 1009.8 |
| 20260506131639 | 56 | 266 | 1.7 | 1.7 | 0.00 | 0.00 | 0.00 | 97 | 1009.8 |
| 20260506131138 | 56 | 170 | 6.1 | 8.7 | 0.00 | 0.00 | 0.00 | 97 | 1010.1 |
| 20260506130637 | 56 | 185 | 4.3 | 6.1 | 0.00 | 0.00 | 0.00 | 97 | 1010.1 |
| 20260506130137 | 55 | 158 | 6.1 | 6.1 | 0.00 | 0.00 | 0.00 | 97 | 1010.1 |
| 20260506125638 | 55 | 61 | 2.6 | 4.3 | 0.00 | 0.00 | 0.00 | 97 | 1010.1 |
| 20260506125237 | 55 | 199 | 5.2 | 7.0 | 0.00 | 0.00 | 0.00 | 97 | 1010.1 |
| 20260506124636 | 55 | 167 | 3.5 | 5.2 | 0.00 | 0.00 | 0.00 | 97 | 1010.1 |
| 20260506124135 | 55 | 33 | 3.5 | 4.3 | 0.00 | 0.00 | 0.00 | 97 | 1010.5 |
| 20260506123637 | 55 | 321 | 1.7 | 1.7 | 0.00 | 0.00 | 0.00 | 97 | 1010.5 |
| 20260506123136 | 55 | 155 | 4.3 | 7.8 | 0.00 | 0.00 | 0.00 | 97 | 1010.1 |
| 20260506122635 | 55 | 40 | 1.7 | 4.3 | 0.00 | 0.00 | 0.00 | 98 | 1010.3 |
| 20260506122134 | 55 | 247 | 4.3 | 5.2 | 0.00 | 0.00 | 0.00 | 97 | 1010.1 |
| 20260506121635 | 55 | 193 | 4.3 | 6.1 | 0.00 | 0.00 | 0.00 | 98 | 1010.1 |
| 20260506121134 | 55 | 168 | 5.2 | 6.1 | 0.00 | 0.00 | 0.00 | 98 | 1009.8 |
| 20260506120734 | 55 | 168 | 5.2 | 6.1 | 0.00 | 0.00 | 0.00 | 98 | 1009.8 |
| 20260506120133 | 55 | 82 | 4.3 | 6.1 | 0.00 | 0.00 | 0.00 | 98 | 1009.8 |
| 20260506115634 | 55 | 137 | 3.5 | 5.2 | 0.00 | 0.00 | 0.00 | 98 | 1010.0 |
| 20260506115134 | 55 | 121 | 5.2 | 6.1 | 0.00 | 0.00 | 0.00 | 98 | 1009.8 |
| 20260506114736 | 55 | 220 | 2.6 | 4.3 | 0.00 | 0.00 | 0.00 | 98 | 1010.1 |
| 20260506114232 | 54 | 75 | 3.5 | 5.2 | 0.00 | 0.00 | 0.00 | 98 | 1010.1 |
| 20260506113637 | 54 | 306 | 2.6 | 4.3 | 0.00 | 0.00 | 0.00 | 98 | 1010.1 |
| 20260506113132 | 54 | 61 | 0.9 | 1.7 | 0.00 | 0.00 | 0.00 | 98 | 1010.1 |
| 20260506111736 | 55 | 185 | 6.1 | 7.0 | 0.00 | 0.00 | 0.00 | 97 | 1010.1 |
| 20260506111231 | 55 | 139 | 3.5 | 4.3 | 0.00 | 0.00 | 0.00 | 97 | 1010.1 |
| 20260506110630 | 55 | 267 | 4.3 | 6.1 | 0.00 | 0.00 | 0.00 | 97 | 1010.5 |
| 20260506110129 | 55 | 94 | 4.3 | 5.2 | 0.00 | 0.00 | 0.00 | 97 | 1010.1 |
| 20260506105631 | 55 | 295 | 1.7 | 1.7 | 0.00 | 0.00 | 0.00 | 97 | 1010.1 |
| 20260506105130 | 55 | 295 | 1.7 | 1.7 | 0.00 | 0.00 | 0.00 | 97 | 1010.1 |
| 20260506104629 | 55 | 146 | 3.5 | 5.2 | 0.00 | 0.00 | 0.00 | 96 | 1010.1 |
| 20260506104128 | 54 | 42 | 2.6 | 4.3 | 0.00 | 0.00 | 0.00 | 96 | 1010.1 |
| 20260506103627 | 54 | 344 | 1.7 | 2.6 | 0.00 | 0.00 | 0.00 | 97 | 1009.8 |
| 20260506103128 | 54 | 58 | 3.5 | 4.3 | 0.00 | 0.00 | 0.00 | 97 | 1010.1 |
| 20260506102627 | 54 | 58 | 3.5 | 4.3 | 0.00 | 0.00 | 0.00 | 97 | 1009.8 |
| 20260506102126 | 54 | 80 | 2.6 | 4.3 | 0.00 | 0.00 | 0.00 | 97 | 1009.8 |
| 20260506101631 | 54 | 47 | 2.6 | 4.3 | 0.00 | 0.00 | 0.00 | 97 | 1010.1 |
| 20260506101225 | 0 | 0.0 | 0.0 | 0.00 | 0.00 | 0.00 | 1010.1 | ||
| 20260506100626 | 0 | 0.0 | 0.0 | 0.00 | 0.00 | 0.00 | 1010.1 | ||
| 20260506100125 | 0 | 0.0 | 0.0 | 0.00 | 0.00 | 0.00 | 1010.1 | ||
| 20260506095624 | 0 | 0.0 | 0.0 | 0.00 | 0.00 | 0.00 | 1010.0 | ||
| 20260506095124 | 0 | 0.0 | 0.0 | 0.00 | 0.00 | 0.00 | 1010.1 | ||
| 20260506094625 | 0 | 0.0 | 0.0 | 0.00 | 0.00 | 0.00 | 1010.1 | ||
| 20260506094124 | 0 | 0.0 | 0.0 | 0.00 | 0.00 | 0.00 | 1009.8 | ||
| 20260506093623 | 0 | 0.0 | 0.0 | 0.00 | 0.00 | 0.00 | 1009.8 | ||
| 20260506093122 | 0 | 0.0 | 0.0 | 0.00 | 0.00 | 0.00 | 1010.1 | ||
| 20260506092624 | 0 | 0.0 | 0.0 | 0.00 | 0.00 | 0.00 | 1010.1 | ||
| 20260506092123 | 0 | 0.0 | 0.0 | 0.00 | 0.00 | 0.00 | 1010.1 | ||
| 20260506091622 | 0 | 0.0 | 0.0 | 0.00 | 0.00 | 0.00 | 1009.8 | ||
| 20260506091121 | 0 | 0.0 | 0.0 | 0.00 | 0.00 | 0.00 | 1009.8 | ||
| 20260506090622 | 0 | 0.0 | 0.0 | 0.00 | 0.00 | 0.00 | 1010.0 | ||
| 20260506090122 | 0 | 0.0 | 0.0 | 0.00 | 0.00 | 0.00 | 1010.1 | ||
| 20260506085621 | 0 | 0.0 | 0.0 | 0.00 | 0.00 | 0.00 | 1010.1 | ||
| 20260506085120 | 0 | 0.0 | 0.0 | 0.00 | 0.00 | 0.00 | 1009.8 | ||
| 20260506084621 | 0 | 0.0 | 0.0 | 0.00 | 0.00 | 0.00 | 1010.1 | ||
| 20260506084121 | 0 | 0.0 | 0.0 | 0.00 | 0.00 | 0.00 | 1010.5 | ||
| 20260506083620 | 0 | 0.0 | 0.0 | 0.00 | 0.00 | 0.00 | 1010.1 | ||
| 20260506083119 | 0 | 0.0 | 0.0 | 0.00 | 0.00 | 0.00 | 1010.1 | ||
| 20260506082618 | 0 | 0.0 | 0.0 | 0.00 | 0.00 | 0.00 | 1010.1 | ||
| 20260506082117 | 0 | 0.0 | 0.0 | 0.00 | 0.00 | 0.00 | 1010.1 | ||
| 20260506081618 | 0 | 0.0 | 0.0 | 0.00 | 0.00 | 0.00 | 1010.3 | ||
| 20260506081118 | 0 | 0.0 | 0.0 | 0.00 | 0.00 | 0.00 | 1010.1 | ||
| 20260506080617 | 0 | 0.0 | 0.0 | 0.00 | 0.00 | 0.00 | 1010.1 | ||
| 20260506080118 | 0 | 0.0 | 0.0 | 0.00 | 0.00 | 0.00 | 1010.5 | ||
| 20260506073146 | 0 | 0.0 | 0.0 | 0.00 | 0.00 | 0.00 | 1010.5 | ||
| 20260506072645 | 0 | 0.0 | 0.0 | 0.00 | 0.00 | 0.00 | 1010.5 | ||
| 20260506072244 | 0 | 0.0 | 0.0 | 0.00 | 0.00 | 0.00 | 1010.5 | ||
| 20260506071646 | 0 | 0.0 | 0.0 | 0.00 | 0.00 | 0.00 | 1010.5 | ||
| 20260506071144 | 0 | 0.0 | 0.0 | 0.00 | 0.00 | 0.00 | 1010.7 | ||
| 20260506070745 | 0 | 0.0 | 0.0 | 0.00 | 0.00 | 0.00 | 1010.5 | ||
| 20260506070146 | 0 | 0.0 | 0.0 | 0.00 | 0.00 | 0.00 | 1010.5 | ||
| 20260506062240 | 0 | 0.0 | 0.0 | 0.00 | 0.00 | 0.00 | 1010.5 | ||
| 20260506061642 | 0 | 0.0 | 0.0 | 0.00 | 0.00 | 0.00 | 1010.5 | ||
| 20260506061140 | 0 | 0.0 | 0.0 | 0.00 | 0.00 | 0.00 | 1010.5 | ||
| 20260506060740 | 0 | 0.0 | 0.0 | 0.00 | 0.00 | 0.00 | 1010.5 | ||
| 20260506060142 | 0 | 0.0 | 0.0 | 0.00 | 0.00 | 0.00 | 1010.5 | ||
| 20260506051136 | 0 | 0.0 | 0.0 | 0.00 | 0.00 | 0.00 | 1010.9 | ||
| 20260506050636 | 0 | 0.0 | 0.0 | 0.00 | 0.00 | 0.00 | 1010.9 | ||
| 20260506050136 | 60 | 337 | 0.9 | 1.7 | 0.00 | 0.00 | 0.00 | 82 | 1010.7 |
| 20260506045136 | 60 | 70 | 2.6 | 4.3 | 0.00 | 0.00 | 0.00 | 81 | 1010.5 |
| 20260506043133 | 61 | 80 | 3.5 | 5.2 | 0.00 | 0.00 | 0.00 | 80 | 1010.9 |
| 20260506042631 | 61 | 203 | 4.3 | 5.2 | 0.00 | 0.00 | 0.00 | 81 | 1010.9 |
| 20260506042132 | 61 | 351 | 2.6 | 2.6 | 0.00 | 0.00 | 0.00 | 81 | 1010.5 |
| 20260506041132 | 61 | 212 | 2.6 | 6.1 | 0.00 | 0.00 | 0.00 | 81 | 1010.7 |
| 20260506040632 | 61 | 66 | 3.5 | 5.2 | 0.00 | 0.00 | 0.00 | 82 | 1010.7 |
| 20260506040131 | 61 | 1 | 1.7 | 1.7 | 0.00 | 0.00 | 0.00 | 83 | 1010.5 |
| 20260506035630 | 62 | 155 | 2.6 | 5.2 | 0.00 | 0.00 | 0.01 | 83 | 1010.5 |
| 20260506035131 | 62 | 14 | 1.7 | 2.6 | 0.00 | 0.00 | 0.01 | 83 | 1010.5 |
| 20260506034630 | 62 | 354 | 0.9 | 0.9 | 0.00 | 0.00 | 0.01 | 82 | 1010.5 |
| 20260506034131 | 62 | 2 | 0.9 | 1.7 | 0.00 | 0.00 | 0.01 | 83 | 1010.1 |
| 20260506033629 | 62 | 345 | 0.9 | 0.9 | 0.00 | 0.00 | 0.01 | 82 | 1010.5 |
| 20260506033128 | 62 | 49 | 2.6 | 4.3 | 0.00 | 0.00 | 0.01 | 82 | 1010.5 |
| 20260506032629 | 62 | 49 | 2.6 | 4.3 | 0.00 | 0.00 | 0.01 | 82 | 1010.5 |
| 20260506032129 | 62 | 239 | 2.6 | 4.3 | 0.00 | 0.00 | 0.01 | 82 | 1010.5 |
| 20260506031628 | 62 | 239 | 2.6 | 4.3 | 0.00 | 0.00 | 0.01 | 82 | 1010.7 |
| 20260506031127 | 0 | 0.0 | 0.0 | 0.00 | 0.00 | 0.01 | 1010.9 | ||
| 20260506030627 | 0 | 0.0 | 0.0 | 0.00 | 0.00 | 0.01 | 1010.9 | ||
| 20260506030125 | 0 | 0.0 | 0.0 | 0.00 | 0.00 | 0.01 | 1010.9 | ||
| 20260506025126 | 0 | 0.0 | 0.0 | 0.00 | 0.00 | 0.01 | 1010.9 | ||
| 20260506024124 | 0 | 0.0 | 0.0 | 0.00 | 0.00 | 0.01 | 1010.5 | ||
| 20260506023625 | 0 | 0.0 | 0.0 | 0.00 | 0.00 | 0.01 | 1010.5 | ||
| 20260506023126 | 0 | 0.0 | 0.0 | 0.00 | 0.00 | 0.01 | 1010.5 | ||
| 20260506022124 | 0 | 0.0 | 0.0 | 0.00 | 0.00 | 0.01 | 1010.5 | ||
| 20260506021627 | 0 | 0.0 | 0.0 | 0.00 | 0.00 | 0.01 | 1010.5 | ||
| 20260506021124 | 0 | 0.0 | 0.0 | 0.00 | 0.00 | 0.01 | 1010.5 | ||
| 20260506020622 | 0 | 0.0 | 0.0 | 0.00 | 0.00 | 0.01 | 1010.7 | ||
| 20260506020123 | 0 | 0.0 | 0.0 | 0.00 | 0.00 | 0.01 | |||
| 20260506015622 | 0 | 0.0 | 0.0 | 0.00 | 0.00 | 0.01 | 1010.9 | ||
| 20260506015124 | 0 | 0.0 | 0.0 | 0.00 | 0.00 | 0.01 | 1010.7 | ||
| 20260506014622 | 0 | 0.0 | 0.0 | 0.00 | 0.00 | 0.01 | 1010.5 | ||
| 20260506014121 | 0 | 0.0 | 0.0 | 0.00 | 0.00 | 0.01 | 1010.5 | ||
| 20260506013121 | 0 | 0.0 | 0.0 | 0.00 | 0.00 | 0.01 | 1010.1 | ||
| 20260506012622 | 0 | 0.0 | 0.0 | 0.00 | 0.00 | 0.01 | 1010.1 | ||
| 20260506012121 | 60 | 340 | 1.7 | 1.7 | 0.00 | 0.00 | 0.01 | 92 | 1010.3 |
| 20260506011621 | 60 | 340 | 1.7 | 1.7 | 0.00 | 0.00 | 0.01 | 92 | 1010.3 |
| 20260506010619 | 60 | 345 | 0.9 | 0.9 | 0.00 | 0.00 | 0.01 | 95 | 1010.1 |
| 20260506010126 | 60 | 0.0 | 0.0 | 0.00 | 0.00 | 0.01 | 94 | 1010.1 | |
| 20260506005617 | 60 | 336 | 0.9 | 1.7 | 0.00 | 0.00 | 0.01 | 93 | 1009.8 |
| 20260506005118 | 61 | 7 | 1.7 | 1.7 | 0.00 | 0.00 | 0.01 | 89 | 1009.8 |
| 20260506004618 | 62 | 316 | 0.9 | 1.7 | 0.00 | 0.00 | 0.01 | 86 | 1010.0 |
| 20260506004118 | 64 | 343 | 0.0 | 0.9 | 0.00 | 0.00 | 0.00 | 80 | 1010.1 |
| 20260506003616 | 0 | 0.0 | 0.0 | 0.00 | 0.00 | 0.00 | 1009.8 | ||
| 20260506003117 | 0 | 0.0 | 0.0 | 0.00 | 0.00 | 0.00 | 1010.0 | ||
| 20260506002748 | 0 | 0.0 | 0.0 | 0.00 | 0.00 | 0.00 | 1010.1 | ||
| 20260506002147 | 0 | 0.0 | 0.0 | 0.00 | 0.00 | 0.00 | 1010.1 | ||
| 20260506001645 | 63 | 0.0 | 0.0 | 0.00 | 0.00 | 0.00 | 81 | 1010.1 |